ONEWEB-0351 (49215 NORAD) Tracking and Keplerian Element Data

This shows tracking and keplerian element data for the satellite.

Feedback or suggestion? Click here.




ElementValue
Catalog49215
NameONEWEB-0351
Epoch Orbit357
Epoch Day300.58334491
Epoch Year2021
RAAN313.0241
Inclination87.1967
Eccentricity0.0020455
Argument of Perigee132.2247
Mean Anonmoly49.6034
Mean Motion14.89636995
Decay Rate-0.00029203
L11 49215U 21083AF 21300.58334491 -.00029203 00000-0 -30646-2 0 9997
L22 49215 87.1967 313.0241 0020455 132.2247 49.6034 14.89636995 3573

Live tracking and technical data element details for ONEWEB-0351 (NORAD 49215). ONEWEB-0351 can be tracked NOW for your location showing map with azimuth and elevation plus other details from your city location.

Track the satellite on the map from your city or location and see movement details for azimuth, elevation, latitude, longitude, range, height, and movement on the map or in text.







IsCatalogInMostPopularTable: catalog: 49215, numindb: 19
Update: records affected: 1



GetName: 49215 ONEWEB-0351

Hit Count: updated at: Thu, 28 Oct 2021 11:23:51 GMT